User: anonymous   Login
Location: Bittkow
(50.3000°N, 19.0000°E)
Time: 05:32:54
(UTC+00:00)
Language:

Cosmos 1782 - Orbit

View from above orbital plane
View from above orbital plane
View from above satellite
View from above satellite

Ground track
Ground track

The orbit data is extracted from the following two-line orbital elements,

1 16986U 86074A   20333.49034789  .00001567  00000-0  10161-3 0  9991
2 16986  82.5063 334.3885 0011504 356.1950   3.9189 15.07377948860667
Epoch (UTC): 28 November 2020 11:46:06
Eccentricity: 0.0011504
inclination: 82.5063°
perigee height: 536 km
apogee height: 552 km
right ascension of ascending node: 334.3885°
argument of perigee: 356.1950°
revolutions per day: 15.07377948
mean anomaly at epoch: 3.9189°
orbit number at epoch: 86066

The dashed part of the orbit path shows where the satellite is in the earth's shadow,  

DLR